FLX698 SBFL-SBCT

Flight info

Callsign FLX698
Flight time 0h 31m
Altitude 20000
Route ENSUG
Aircraft E190/M-SDE3GILORVW/S

Departure

Time 2026-04-25 16:43
Airport Hercílio Luz International Airport (SBFL)

Arrival

Time 2026-04-25 17:14
Airport Curitiba-Afonso Pena International Airport (SBCT)
Time Latitude Longitude Altitude Speed Heading
2026-04-25 16:23 -27.66531 -48.54544 38 ft 0 kts 30°
2026-04-25 16:37 -27.66537 -48.54547 38 ft 2 kts 30°
2026-04-25 16:37 -27.66550 -48.54556 38 ft 2 kts 30°
2026-04-25 16:37 -27.66558 -48.54561 38 ft 2 kts 27°
2026-04-25 16:38 -27.66573 -48.54563 38 ft 2 kts 351°
2026-04-25 16:38 -27.66587 -48.54558 38 ft 2 kts 323°
2026-04-25 16:38 -27.66594 -48.54549 38 ft 0 kts 304°
2026-04-25 16:38 -27.66598 -48.54542 38 ft 0 kts 300°
2026-04-25 16:40 -27.66597 -48.54543 38 ft 0 kts 301°
2026-04-25 16:40 -27.66592 -48.54554 38 ft 2 kts 301°
2026-04-25 16:41 -27.66581 -48.54575 38 ft 3 kts 301°
2026-04-25 16:41 -27.66576 -48.54584 38 ft 4 kts 301°
2026-04-25 16:41 -27.66520 -48.54693 39 ft 7 kts 276°
2026-04-25 16:42 -27.66558 -48.54738 38 ft 9 kts 208°
2026-04-25 16:42 -27.66625 -48.54783 37 ft 12 kts 215°
2026-04-25 16:42 -27.66709 -48.54831 36 ft 14 kts 181°
2026-04-25 16:42 -27.66773 -48.54751 36 ft 15 kts 122°
2026-04-25 16:43 -27.66931 -48.54457 35 ft 89 kts 121°
2026-04-25 16:43 -27.67396 -48.53595 115 ft 159 kts 124°
2026-04-25 16:43 -27.68032 -48.52427 677 ft 194 kts 116°
2026-04-25 16:43 -27.68077 -48.50810 1388 ft 227 kts 69°
2026-04-25 16:44 -27.67062 -48.49502 2405 ft 232 kts 28°
2026-04-25 16:44 -27.65690 -48.48614 3591 ft 229 kts 31°
2026-04-25 16:44 -27.64415 -48.47606 4675 ft 229 kts 34°
2026-04-25 16:44 -27.63166 -48.46495 5618 ft 231 kts 36°
2026-04-25 16:45 -27.61925 -48.45325 5918 ft 242 kts 37°
2026-04-25 16:45 -27.60634 -48.44058 5961 ft 244 kts 37°
2026-04-25 16:45 -27.59371 -48.42797 5968 ft 242 kts 38°
2026-04-25 16:45 -27.58107 -48.41523 5971 ft 241 kts 38°
2026-04-25 16:46 -27.56852 -48.40253 5968 ft 241 kts 38°
2026-04-25 16:46 -27.55611 -48.38995 5971 ft 242 kts 38°
2026-04-25 16:46 -27.54186 -48.38099 5977 ft 229 kts
2026-04-25 16:46 -27.53650 -48.38063 6033 ft 227 kts 350°
2026-04-25 16:47 -27.50938 -48.38452 7280 ft 239 kts 345°
2026-04-25 16:47 -27.49337 -48.38720 8319 ft 233 kts 345°
2026-04-25 16:47 -27.47766 -48.38994 9276 ft 230 kts 345°
2026-04-25 16:47 -27.46207 -48.39271 10141 ft 232 kts 344°
2026-04-25 16:48 -27.44611 -48.39558 10990 ft 235 kts 344°
2026-04-25 16:48 -27.42989 -48.39850 11821 ft 238 kts 344°
2026-04-25 16:48 -27.41377 -48.40142 12651 ft 240 kts 343°
2026-04-25 16:48 -27.39722 -48.40440 13499 ft 243 kts 343°
2026-04-25 16:49 -27.38065 -48.40740 14328 ft 246 kts 343°
2026-04-25 16:49 -27.36369 -48.41047 15161 ft 248 kts 342°
2026-04-25 16:49 -27.34659 -48.41357 15976 ft 251 kts 342°
2026-04-25 16:49 -27.32944 -48.41667 16727 ft 254 kts 342°
2026-04-25 16:50 -27.31175 -48.41987 17466 ft 258 kts 342°
2026-04-25 16:50 -27.29405 -48.42306 18183 ft 261 kts 342°
2026-04-25 16:50 -27.27625 -48.42628 18887 ft 263 kts 341°
2026-04-25 16:50 -27.25810 -48.42955 19575 ft 264 kts 341°
2026-04-25 16:51 -27.24006 -48.43282 19832 ft 265 kts 341°
2026-04-25 16:51 -27.22145 -48.43739 19906 ft 288 kts 336°
2026-04-25 16:51 -27.20089 -48.44337 19923 ft 317 kts 337°
2026-04-25 16:51 -27.19368 -48.44546 19918 ft 327 kts 338°
2026-04-25 16:52 -27.15441 -48.45676 19912 ft 371 kts 338°
2026-04-25 16:52 -27.12900 -48.46405 19892 ft 382 kts 339°
2026-04-25 16:52 -27.10299 -48.47152 19900 ft 383 kts 339°
2026-04-25 16:52 -27.07723 -48.47893 19891 ft 387 kts 339°
2026-04-25 16:53 -27.02238 -48.49474 19902 ft 418 kts 339°
2026-04-25 16:53 -26.99430 -48.50280 19894 ft 415 kts 339°
2026-04-25 16:53 -26.96626 -48.51086 19882 ft 417 kts 339°
2026-04-25 16:54 -26.93824 -48.51891 19889 ft 414 kts 339°
2026-04-25 16:54 -26.91003 -48.52701 19887 ft 414 kts 339°
2026-04-25 16:54 -26.88223 -48.53500 19898 ft 415 kts 339°
2026-04-25 16:54 -26.85394 -48.54311 19894 ft 414 kts 339°
2026-04-25 16:55 -26.82620 -48.55107 19889 ft 415 kts 339°
2026-04-25 16:55 -26.79824 -48.55909 19893 ft 416 kts 339°
2026-04-25 16:55 -26.76997 -48.56718 19897 ft 415 kts 339°
2026-04-25 16:55 -26.74214 -48.57516 19885 ft 416 kts 339°
2026-04-25 16:56 -26.71408 -48.58319 19896 ft 416 kts 339°
2026-04-25 16:56 -26.68586 -48.59125 19889 ft 417 kts 339°
2026-04-25 16:56 -26.65797 -48.59923 19880 ft 415 kts 339°
2026-04-25 16:56 -26.62975 -48.60730 19895 ft 416 kts 339°
2026-04-25 16:57 -26.60169 -48.61532 19883 ft 417 kts 339°
2026-04-25 16:57 -26.59238 -48.61797 19874 ft 416 kts 339°
2026-04-25 16:57 -26.54570 -48.63129 19890 ft 415 kts 339°
2026-04-25 16:57 -26.51733 -48.63939 19889 ft 418 kts 339°
2026-04-25 16:58 -26.48926 -48.64739 19892 ft 416 kts 339°
2026-04-25 16:58 -26.46116 -48.65540 19890 ft 418 kts 339°
2026-04-25 16:58 -26.43321 -48.66336 19884 ft 415 kts 339°
2026-04-25 16:58 -26.40594 -48.67107 19881 ft 386 kts 339°
2026-04-25 16:59 -26.38081 -48.67822 19875 ft 365 kts 339°
2026-04-25 16:59 -26.35604 -48.68530 19888 ft 367 kts 339°
2026-04-25 16:59 -26.33118 -48.69239 19666 ft 372 kts 339°
2026-04-25 16:59 -26.30624 -48.69947 19283 ft 372 kts 339°
2026-04-25 17:00 -26.28120 -48.70658 18871 ft 371 kts 339°
2026-04-25 17:00 -26.25600 -48.71374 18457 ft 369 kts 339°
2026-04-25 17:00 -26.23129 -48.72075 18048 ft 367 kts 340°
2026-04-25 17:00 -26.20677 -48.72770 17658 ft 366 kts 340°
2026-04-25 17:01 -26.18200 -48.73472 17250 ft 363 kts 340°
2026-04-25 17:01 -26.15766 -48.74162 16841 ft 361 kts 340°
2026-04-25 17:01 -26.13334 -48.74851 16454 ft 358 kts 340°
2026-04-25 17:01 -26.11101 -48.75921 16043 ft 345 kts 320°
2026-04-25 17:02 -26.09239 -48.77562 15686 ft 342 kts 316°
2026-04-25 17:02 -26.07411 -48.79236 15331 ft 340 kts 316°
2026-04-25 17:02 -26.05585 -48.80916 14949 ft 338 kts 316°
2026-04-25 17:02 -26.04998 -48.81457 14831 ft 337 kts 316°
2026-04-25 17:03 -26.02011 -48.84209 14228 ft 334 kts 316°
2026-04-25 17:03 -26.00211 -48.85869 13875 ft 332 kts 316°
2026-04-25 17:03 -25.98447 -48.87493 13525 ft 331 kts 317°
2026-04-25 17:03 -25.96684 -48.89116 13166 ft 328 kts 317°
2026-04-25 17:04 -25.94925 -48.90735 12805 ft 327 kts 317°
2026-04-25 17:04 -25.93177 -48.92343 12461 ft 325 kts 317°
2026-04-25 17:04 -25.91455 -48.93927 12127 ft 323 kts 317°
2026-04-25 17:04 -25.89726 -48.95516 11767 ft 320 kts 317°
2026-04-25 17:05 -25.88016 -48.97087 11414 ft 313 kts 317°
2026-04-25 17:05 -25.84770 -49.00068 10726 ft 288 kts 317°
2026-04-25 17:05 -25.83279 -49.01435 10426 ft 271 kts 317°
2026-04-25 17:06 -25.81862 -49.02736 10110 ft 257 kts 317°
2026-04-25 17:06 -25.80515 -49.03971 9826 ft 244 kts 317°
2026-04-25 17:06 -25.79250 -49.05131 9562 ft 232 kts 317°
2026-04-25 17:06 -25.78029 -49.06250 9309 ft 221 kts 317°
2026-04-25 17:07 -25.76873 -49.07310 9084 ft 213 kts 317°
2026-04-25 17:07 -25.75734 -49.08355 8860 ft 208 kts 317°
2026-04-25 17:07 -25.74646 -49.09351 8663 ft 201 kts 317°
2026-04-25 17:07 -25.73457 -49.10119 8449 ft 200 kts 348°
2026-04-25 17:08 -25.72102 -49.09788 8211 ft 213 kts 30°
2026-04-25 17:08 -25.71148 -49.08490 7898 ft 218 kts 57°
2026-04-25 17:08 -25.70396 -49.07056 7605 ft 216 kts 57°
2026-04-25 17:08 -25.69647 -49.05615 7343 ft 212 kts 57°
2026-04-25 17:09 -25.68933 -49.04237 7130 ft 204 kts 57°
2026-04-25 17:09 -25.68229 -49.02877 6880 ft 200 kts 55°
2026-04-25 17:09 -25.67225 -49.01923 6652 ft 188 kts 12°
2026-04-25 17:09 -25.65983 -49.02014 6440 ft 179 kts 328°
2026-04-25 17:10 -25.65194 -49.03036 6224 ft 177 kts 295°
2026-04-25 17:10 -25.64548 -49.04206 5980 ft 177 kts 304°
2026-04-25 17:10 -25.63789 -49.05250 5733 ft 173 kts 309°
2026-04-25 17:10 -25.62995 -49.06216 5513 ft 166 kts 311°
2026-04-25 17:11 -25.62220 -49.07111 5322 ft 157 kts 311°
2026-04-25 17:11 -25.61478 -49.07951 5092 ft 148 kts 312°
2026-04-25 17:11 -25.60769 -49.08746 4900 ft 139 kts 312°
2026-04-25 17:11 -25.60091 -49.09505 4720 ft 139 kts 312°
2026-04-25 17:12 -25.59409 -49.10267 4544 ft 140 kts 312°
2026-04-25 17:12 -25.58725 -49.11029 4367 ft 141 kts 313°
2026-04-25 17:12 -25.58036 -49.11798 4182 ft 138 kts 312°
2026-04-25 17:12 -25.57384 -49.12526 3995 ft 130 kts 312°
2026-04-25 17:13 -25.56745 -49.13238 3833 ft 128 kts 312°
2026-04-25 17:13 -25.56535 -49.13472 3789 ft 128 kts 313°
2026-04-25 17:13 -25.55484 -49.14645 3524 ft 130 kts 312°
2026-04-25 17:13 -25.54843 -49.15356 3363 ft 130 kts 313°
2026-04-25 17:14 -25.54197 -49.16061 3191 ft 130 kts 313°
2026-04-25 17:14 -25.53556 -49.16782 3017 ft 128 kts 312°
2026-04-25 17:14 -25.53020 -49.17384 2993 ft 83 kts 314°
2026-04-25 17:14 -25.52757 -49.17678 2987 ft 32 kts 314°
2026-04-25 17:15 -25.52607 -49.17848 2988 ft 25 kts 313°
2026-04-25 17:15 -25.52521 -49.17954 2986 ft 11 kts 289°
2026-04-25 17:15 -25.52570 -49.18006 2985 ft 12 kts 180°
2026-04-25 17:15 -25.52658 -49.18000 2985 ft 12 kts 180°
2026-04-25 17:16 -25.52750 -49.17999 2985 ft 13 kts 176°
2026-04-25 17:16 -25.52848 -49.17991 2985 ft 14 kts 166°
2026-04-25 17:16 -25.52920 -49.17927 2985 ft 11 kts 135°
2026-04-25 17:16 -25.52959 -49.17888 2985 ft 5 kts 159°
2026-04-25 17:17 -25.52998 -49.17915 2984 ft 8 kts 225°
2026-04-25 17:17 -25.53043 -49.17964 2982 ft 8 kts 224°
2026-04-25 17:17 -25.53070 -49.18004 2979 ft 3 kts 278°
2026-04-25 17:17 -25.53068 -49.18034 2978 ft 5 kts 234°
2026-04-25 17:18 -25.53069 -49.18046 2977 ft 0 kts 292°